EN

Hourly Weather Lukawica

Today, 14 May, Friday

Time Temperature Precipitation Wind Pressure Humidity
00:00 +10°C° 0 mm 2 mps 728 mmHg 96%
01:00 +10°C° 0 mm 2 mps 728 mmHg 97%
02:00 +10°C° 0.3 mm 2 mps 728 mmHg 97%
03:00 +10°C° 0.3 mm 2 mps 728 mmHg 96%
04:00 +12°C° 0.3 mm 2 mps 728 mmHg 96%
05:00 +12°C° 0.1 mm 2 mps 728 mmHg 94%
06:00 +12°C° 0.1 mm 3 mps 729 mmHg 93%
07:00 +12°C° 0 mm 3 mps 729 mmHg 92%
08:00 +12°C° 0.2 mm 3 mps 729 mmHg 92%
09:00 +13°C° 0.2 mm 3 mps 730 mmHg 91%
10:00 +13°C° 0.2 mm 3 mps 730 mmHg 91%
11:00 +13°C° 0.4 mm 3 mps 730 mmHg 89%
12:00 +14°C° 0.4 mm 3 mps 730 mmHg 87%
13:00 +14°C° 0.4 mm 3 mps 731 mmHg 85%
14:00 +14°C° 0.6 mm 4 mps 731 mmHg 85%
15:00 +14°C° 0.6 mm 5 mps 731 mmHg 86%
16:00 +14°C° 0.6 mm 6 mps 731 mmHg 86%
17:00 +13°C° 0.2 mm 6 mps 732 mmHg 88%
18:00 +12°C° 0.2 mm 5 mps 732 mmHg 89%
19:00 +12°C° 0.2 mm 5 mps 733 mmHg 91%
20:00 +10°C° 0 mm 5 mps 733 mmHg 91%
21:00 +10°C° 0 mm 5 mps 733 mmHg 92%
22:00 +11°C° 0 mm 4 mps 734 mmHg 92%
23:00 +10°C° 0 mm 4 mps 734 mmHg 92%

Tomorrow, 15 May, Saturday

Time Temperature Precipitation Wind Pressure Humidity
00:00 +10°C° 0 mm 3 mps 734 mmHg 92%
01:00 +9°C° 0 mm 3 mps 735 mmHg 93%
02:00 +8°C° 0 mm 3 mps 735 mmHg 93%
03:00 +8°C° 0 mm 3 mps 735 mmHg 94%
04:00 +7°C° 0 mm 3 mps 735 mmHg 94%
05:00 +9°C° 0 mm 3 mps 736 mmHg 89%
06:00 +10°C° 0 mm 3 mps 736 mmHg 85%
07:00 +12°C° 0 mm 3 mps 736 mmHg 80%
08:00 +13°C° 0 mm 3 mps 736 mmHg 74%
09:00 +14°C° 0 mm 3 mps 736 mmHg 68%
10:00 +16°C° 0 mm 3 mps 736 mmHg 62%
11:00 +17°C° 0.1 mm 3 mps 736 mmHg 61%
12:00 +18°C° 0.1 mm 2 mps 736 mmHg 59%
13:00 +18°C° 0.1 mm 2 mps 736 mmHg 57%
14:00 +18°C° 0.2 mm 2 mps 736 mmHg 60%
15:00 +18°C° 0.2 mm 2 mps 736 mmHg 64%
16:00 +17°C° 0.2 mm 3 mps 736 mmHg 67%
17:00 +16°C° 0.1 mm 3 mps 735 mmHg 73%
18:00 +14°C° 0.1 mm 3 mps 735 mmHg 79%
19:00 +13°C° 0.1 mm 3 mps 735 mmHg 85%
20:00 +12°C° 0 mm 3 mps 735 mmHg 87%
21:00 +11°C° 0 mm 3 mps 734 mmHg 89%
22:00 +10°C° 0 mm 3 mps 734 mmHg 90%
23:00 +10°C° 0 mm 3 mps 734 mmHg 90%

Day after tomorrow, 16 May, Sunday

Time Temperature Precipitation Wind Pressure Humidity
00:00 +10°C° 0 mm 3 mps 734 mmHg 89%
01:00 +10°C° 0 mm 3 mps 734 mmHg 88%
02:00 +10°C° 0 mm 3 mps 734 mmHg 90%
03:00 +10°C° 0 mm 2 mps 733 mmHg 91%
04:00 +10°C° 0 mm 2 mps 733 mmHg 92%
05:00 +11°C° 0 mm 3 mps 733 mmHg 88%
06:00 +12°C° 0 mm 3 mps 733 mmHg 84%
07:00 +14°C° 0 mm 3 mps 733 mmHg 79%
08:00 +14°C° 0.4 mm 3 mps 733 mmHg 82%
09:00 +13°C° 0.4 mm 3 mps 733 mmHg 84%
10:00 +14°C° 0.4 mm 2 mps 734 mmHg 87%
11:00 +14°C° 0.6 mm 2 mps 733 mmHg 88%
12:00 +14°C° 0.6 mm 2 mps 733 mmHg 90%
13:00 +13°C° 0.6 mm 2 mps 733 mmHg 92%
14:00 +12°C° 1.1 mm 3 mps 733 mmHg 92%
15:00 +11°C° 1.1 mm 4 mps 733 mmHg 93%
16:00 +10°C° 1.1 mm 5 mps 733 mmHg 94%
17:00 +11°C° 0.1 mm 4 mps 734 mmHg 94%
18:00 +10°C° 0.1 mm 3 mps 734 mmHg 93%
19:00 +10°C° 0.1 mm 2 mps 734 mmHg 93%
20:00 +9°C° 0 mm 2 mps 734 mmHg 94%
21:00 +9°C° 0 mm 2 mps 734 mmHg 94%
22:00 +8°C° 0 mm 2 mps 734 mmHg 95%
23:00 +8°C° 0 mm 2 mps 734 mmHg 95%

17 May, Monday

Time Temperature Precipitation Wind Pressure Humidity
00:00 +7°C° 0 mm 2 mps 734 mmHg 94%
01:00 +7°C° 0 mm 2 mps 734 mmHg 94%
02:00 +7°C° 0 mm 2 mps 735 mmHg 94%
03:00 +7°C° 0 mm 2 mps 735 mmHg 93%
04:00 +6°C° 0 mm 2 mps 735 mmHg 93%
05:00 +8°C° 0 mm 2 mps 735 mmHg 88%
06:00 +10°C° 0 mm 2 mps 735 mmHg 84%
07:00 +13°C° 0 mm 2 mps 735 mmHg 79%
08:00 +14°C° 0 mm 2 mps 735 mmHg 74%
09:00 +16°C° 0 mm 2 mps 735 mmHg 68%
10:00 +17°C° 0 mm 3 mps 735 mmHg 63%
11:00 +17°C° 0.5 mm 3 mps 735 mmHg 66%
12:00 +17°C° 0.5 mm 4 mps 735 mmHg 69%
13:00 +17°C° 0.5 mm 4 mps 734 mmHg 72%
14:00 +16°C° 0.8 mm 3 mps 734 mmHg 77%
15:00 +15°C° 0.8 mm 2 mps 734 mmHg 82%
16:00 +14°C° 0.8 mm 2 mps 734 mmHg 86%
17:00 +13°C° 0.3 mm 2 mps 734 mmHg 88%
18:00 +13°C° 0.3 mm 2 mps 734 mmHg 90%
19:00 +12°C° 0.3 mm 2 mps 734 mmHg 92%
20:00 +12°C° 0 mm 2 mps 734 mmHg 92%
21:00 +10°C° 0 mm 2 mps 734 mmHg 92%
22:00 +9°C° 0 mm 2 mps 735 mmHg 92%
23:00 +9°C° 0 mm 3 mps 735 mmHg 93%

18 May, Tuesday

Time Temperature Precipitation Wind Pressure Humidity
00:00 +8°C° 0 mm 3 mps 735 mmHg 93%
01:00 +8°C° 0 mm 3 mps 735 mmHg 93%
02:00 +7°C° 0 mm 2 mps 735 mmHg 93%
03:00 +7°C° 0 mm 2 mps 735 mmHg 94%
04:00 +6°C° 0 mm 2 mps 735 mmHg 94%
05:00 +8°C° 0 mm 2 mps 736 mmHg 91%
06:00 +9°C° 0 mm 3 mps 736 mmHg 87%
07:00 +11°C° 0 mm 3 mps 736 mmHg 83%
08:00 +12°C° 0 mm 3 mps 736 mmHg 76%
09:00 +13°C° 0 mm 4 mps 736 mmHg 69%
10:00 +14°C° 0 mm 4 mps 736 mmHg 62%
11:00 +14°C° 0 mm 4 mps 736 mmHg 63%
12:00 +14°C° 0 mm 4 mps 736 mmHg 63%
13:00 +14°C° 0 mm 4 mps 736 mmHg 64%
14:00 +14°C° 0 mm 4 mps 736 mmHg 63%
15:00 +15°C° 0 mm 4 mps 736 mmHg 62%
16:00 +15°C° 0 mm 4 mps 736 mmHg 61%
17:00 +13°C° 0.2 mm 3 mps 736 mmHg 69%
18:00 +12°C° 0.2 mm 3 mps 737 mmHg 77%
19:00 +12°C° 0.2 mm 2 mps 737 mmHg 85%
20:00 +10°C° 0 mm 2 mps 737 mmHg 87%
21:00 +9°C° 0 mm 3 mps 737 mmHg 89%
22:00 +8°C° 0 mm 3 mps 737 mmHg 91%
23:00 +8°C° 0 mm 3 mps 738 mmHg 92%

19 May, Wednesday

Time Temperature Precipitation Wind Pressure Humidity
00:00 +7°C° 0 mm 3 mps 738 mmHg 93%
01:00 +7°C° 0 mm 3 mps 738 mmHg 95%
02:00 +7°C° 0 mm 3 mps 738 mmHg 95%
03:00 +7°C° 0 mm 3 mps 739 mmHg 96%
04:00 +7°C° 0 mm 3 mps 739 mmHg 97%
05:00 +7°C° 0 mm 3 mps 739 mmHg 95%
06:00 +7°C° 0 mm 4 mps 739 mmHg 93%
07:00 +8°C° 0 mm 4 mps 740 mmHg 92%
08:00 +10°C° 0.1 mm 4 mps 740 mmHg 88%
09:00 +10°C° 0.1 mm 4 mps 740 mmHg 85%
10:00 +11°C° 0.1 mm 4 mps 740 mmHg 82%
11:00 +12°C° 0.3 mm 4 mps 740 mmHg 75%
12:00 +13°C° 0.3 mm 4 mps 740 mmHg 68%
13:00 +14°C° 0.3 mm 5 mps 740 mmHg 61%
14:00 +15°C° 0.2 mm 4 mps 740 mmHg 59%
15:00 +15°C° 0.2 mm 4 mps 739 mmHg 57%
16:00 +16°C° 0.2 mm 3 mps 739 mmHg 56%
17:00 +13°C° 0 mm 3 mps 740 mmHg 62%
18:00 +13°C° 0 mm 2 mps 740 mmHg 68%
19:00 +12°C° 0 mm 2 mps 740 mmHg 75%
20:00 +10°C° 0 mm 2 mps 740 mmHg 77%
21:00 +9°C° 0 mm 2 mps 740 mmHg 80%
22:00 +9°C° 0 mm 1 mps 740 mmHg 83%
23:00 +7°C° 0.1 mm 2 mps 740 mmHg 86%
Show more